User: anonymous   Login
Location: The Top Of The Sky Mini Observatory
(41.4300°N, 81.2300°W)
Time: 15:55:49
(UTC-04:00)
Language:

Iridium 86 - Orbit

View from above orbital plane
View from above orbital plane
View from above satellite
View from above satellite

Ground track
Ground track

The orbit data is extracted from the following two-line orbital elements,

1 25528U 98066B   16181.43330783  .00000124  00000-0  37363-4 0  9992
2 25528  86.3972 137.3039 0002524  84.6965 275.4519 14.34219225928809
Epoch (UTC): 29 June 2016 10:23:57
Eccentricity: 0.0002524
inclination: 86.3972°
perigee height: 776 km
apogee height: 779 km
right ascension of ascending node: 137.3039°
argument of perigee: 84.6965°
revolutions per day: 14.34219225
mean anomaly at epoch: 275.4519°
orbit number at epoch: 92880

The dashed part of the orbit path shows where the satellite is in the earth's shadow,  

DLR